www.pogodaiklimat.ru

Погода и климат >> Архив погоды >> Хорватия >> Dubrovnik-Gorica


ПОГОДА в Dubrovnik-Gorica

  • Прогноз погоды в Dubrovnik-Gorica
  • Монитор погоды в Dubrovnik-Gorica
  • Климат города

АРХИВ ПОГОДЫ в Dubrovnik-Gorica

Время (UTC), дата Ветер
(напр.,м/с)
 
Видим.   Явления Облачность Т
(С)
Тd
(С)
f
(%)
Тe
(С)
Тes
(С)
Комфортность P
(гПа)
Po
(гПа)
Тmin
(С)
Tmax
(С)
R
(мм)
R24
(мм)
S
(см)
13 9.07 З 7 20 км 6/6 1000 м
[Cu med, cong]
+27.8 +12.1 38 +29 +31 жарко 1011.4 1005.3
18 9.07 СВ 5 20 км 8/1 1000 м
[Cu med, cong Ac lent Cs]
+26.7 +8.5 32 +27 +27 жарко 1011.0 1004.9 +29.6
19 9.07 СВ 3 20 км 8/4 1000 м
[Cu med, cong Cs]
+26.0 1011.8 1005.7
20 9.07 С 1 20 км 8/4 1000 м
[Sc diur, vesp Cs]
+24.8 1012.5 1006.4
03 10.07 СВ 2 20 км 1/1 1000 м
[Cu hum]
+21.9 +11.3 51 +24 +24 комфорт 1012.3 1006.1
04 10.07 С 4 20 км ясно +22.1 +11.2 50 +24 +24 комфорт 1012.2 1006.0
05 10.07 СЗ 1 20 км ясно +22.5 +11.5 50 +25 +27 комфорт 1012.2 1006.0
06 10.07 СЗ 2 20 км 1/1 1000 м
[Cu hum]
+24.9 +12.8 47 +27 +31 жарко 1012.4 1006.3 +21.9
07 10.07 ЮВ 3 20 км 1/1 1000 м
[Cu hum]
+25.8 +13.9 48 +28 +35 жарко 1012.6 1006.5
08 10.07 Ю 3 20 км 1/1 1000 м
[Cu hum]
+25.6 +16.1 56 +29 +39 душно 1013.0 1006.9
09 10.07 Ю 3 20 км 1/1 1000 м
[Cu med, cong]
+25.5 +18.3 64 +30 +42 душно 1013.2 1007.1
10 10.07 Ю 3 20 км 1/1 1000 м
[Cu med, cong]
+26.8 +18.5 60 +32 +46 очень
душно
1013.2 1007.1
11 10.07 Ю 3 20 км 1/1 1000 м
[Cu med, cong]
+27.7 1013.2 1007.1
12 10.07 Ю 3 20 км 1/1 1000 м
[Cu med, cong]
+28.0 +18.4 56 +33 +46 очень
душно
1013.2 1007.1
13 10.07 Ю 3 20 км 1/1 1000 м
[Cu med, cong]
+27.7 +18.0 56 +32 +44 очень
душно
1013.2 1007.1
18 10.07 З 2 20 км ясно +24.2 +17.4 66 +28 +28 душно 1012.9 1006.8 +29.0
20 10.07 С 2 20 км ясно +24.2 +15.5 58 +27 +27 жарко 1013.2 1007.1
19 10.07 СЗ 1 20 км ясно +23.5 +17.9 71 +28 +28 душно 1013.0 1006.9
03 11.07 С 1 20 км ясно +22.2 +19.0 82 +28 +28 душно 1013.1 1006.9
04 11.07 С 1 20 км ясно +22.0 1013.3 1007.1
05 11.07 В 1 20 км ясно +22.5 +18.3 77 +28 +30 душно 1013.4 1007.2
06 11.07 ЮВ 2 20 км ясно +24.5 +18.7 70 +29 +34 душно 1013.4 1007.3 +22.0
08 11.07 ЮВ 3 20 км ясно +26.0 +17.6 60 +30 +41 душно 1014.0 1007.9
07 11.07 ЮВ 2 20 км ясно +25.2 +18.0 64 +30 +38 душно 1013.8 1007.7
09 11.07 ЮВ 4 20 км 1/1 1000 м
[Cu med, cong]
+26.2 +20.9 73 +33 +43 очень
душно
1014.1 1008.0
10 11.07 ЮВ 3 20 км 1/1 1000 м
[Cu med, cong]
+26.3 +21.4 74 +33 +47 очень
душно
1014.1 1008.0
11 11.07 ЮВ 3 20 км 1/1 1000 м
[Cu med, cong]
+27.2 1014.1 1008.0
12 11.07 ЮВ 3 20 км 1/1 1000 м
[Cu med, cong]
+27.7 +22.3 72 +36 +50 очень
душно
1014.0 1007.9
13 11.07 ЮВ 3 20 км 1/1 1000 м
[Cu med, cong]
+28.0 +21.8 69 +36 +47 очень
душно
1013.6 1007.6
18 11.07 ЮВ 1 20 км ясно +24.0 +20.3 80 +30 +30 очень
душно
1013.2 1007.1 +29.1
19 11.07 ЮВ 2 20 км ясно +23.5 1013.0 1006.9
20 11.07 ЮВ 2 20 км ясно +23.2 +19.3 79 +30 +30 очень
душно
1013.7 1007.5
03 12.07 штиль 0 20 км ясно +22.1 +14.1 60 +25 +25 комфорт 1013.9 1007.7
04 12.07 С 2 20 км 3/3 1000 м
[Cu med, cong]
+22.7 1014.1 1007.9
05 12.07 С 1 20 км 3/3 1000 м
[Cu med, cong]
+23.8 +12.7 50 +26 +27 жарко 1014.2 1008.0
06 12.07 ЮВ 2 20 км 1/1 1000 м
[Cu med, cong]
+25.1 1014.1 1008.0
07 12.07 ЮВ 4 20 км 1/1 1000 м
[Cu med, cong]
+26.5 +13.4 44 +28 +34 жарко 1014.9 1008.8
08 12.07 ЮВ 5 20 км 3/3 1000 м
[Cu med, cong]
+26.7 +16.3 53 +30 +35 душно 1015.0 1008.9
09 12.07 ЮВ 4 20 км 3/3 1000 м
[Cu med, cong]
+27.3 +18.7 59 +32 +40 очень
душно
1015.0 1008.9
10 12.07 ЮВ 4 20 км 1/1 1000 м
[Cu med, cong]
+27.4 +19.3 61 +33 +44 очень
душно
1015.3 1009.2
11 12.07 ЮВ 4 20 км 3/3 1000 м
[Cu med, cong]
+28.1 +21.1 66 +35 +45 очень
душно
1015.6 1009.5
12 12.07 ЮВ 4 20 км 3/3 1000 м
[Cu med, cong]
+28.0 1015.6 1009.5
13 12.07 ЮВ 4 20 км 3/3 1000 м
[Cu med, cong]
+28.1 +22.5 72 +37 +44 очень
душно
1015.3 1009.2
18 12.07 штиль 0 20 км ясно +25.0 +22.3 85 +33 +33 очень
душно
1014.1 1008.0 +30.0
19 12.07 штиль 0 20 км ясно +24.0 +18.3 70 +28 +28 душно 1014.1 1008.0
20 12.07 С 1 20 км ясно +23.7 +19.4 77 +29 +29 душно 1014.4 1008.3
03 13.07 С 2 20 км ясно +22.2 +19.0 82 +28 +28 душно 1015.1 1008.9
05 13.07 СЗ 1 30 км ясно +23.0 +15.7 63 +27 +29 душно 1015.1 1008.9
04 13.07 В 1 20 км ясно +22.0 +16.2 70 +26 +26 душно 1015.0 1008.8
06 13.07 ЮВ 1 20 км ясно +24.0 +16.5 63 +27 +33 жарко 1015.3 1009.1 +21.2
07 13.07 З 1 20 км ясно +26.2 +18.5 63 +31 +41 очень
душно
1015.3 1009.2
08 13.07 З 2 20 км ясно +26.3 +17.9 60 +31 +44 душно 1015.8 1009.7
09 13.07 З 3 20 км ясно +27.5 +22.3 73 +36 +50 очень
душно
1015.8 1009.7
11 13.07 ЮЗ 3 20 км 1/1 1000 м
[Cu med, cong]
+28.0 1016.2 1010.1
10 13.07 ЮЗ 3 20 км ясно +27.2 1016.1 1010.0
12 13.07 ЮЗ 2 20 км 1/1 1000 м
[Cu med, cong]
+28.0 +24.3 80 +39 +55 опасность
солнечного
удара
1016.1 1010.0
13 13.07 ЮЗ 3 20 км 1/1 1000 м
[Cu med, cong]
+28.3 +23.7 76 +39 +50 очень
душно
1016.0 1010.0
18 13.07 СЗ 2 20 км ясно +26.0 1014.5 1008.4 +28.3
19 13.07 В 1 20 км ясно +25.3 +19.1 69 +30 +30 душно 1014.5 1008.4
20 13.07 СЗ 4 20 км ясно +25.7 +17.9 62 +30 +30 душно 1015.2 1009.1
03 14.07 ЮЗ 1 20 км ясно +24.8 1015.2 1009.1
04 14.07 СЗ 1 20 км ясно +24.1 +14.4 55 +27 +27 жарко 1015.3 1009.1
05 14.07 ЮВ 3 20 км ясно +24.6 +14.1 52 +27 +29 жарко 1015.2 1009.1
06 14.07 ЮЗ 2 20 км ясно +26.2 +16.8 56 +30 +35 душно 1015.3 1009.2 +24.0
07 14.07 СВ 6 20 км ясно +28.1 +13.6 41 +30 +33 жарко 1015.4 1009.3
08 14.07 ЮЗ 3 20 км ясно +27.8 +18.6 57 +33 +43 очень
душно
1015.8 1009.7
09 14.07 Ю 2 20 км 1/1 1000 м
[Cu hum]
+28.5 +18.8 56 +34 +48 очень
душно
1016.0 1009.9
10 14.07 ЮЗ 2 20 км 1/1 1000 м
[Cu hum]
+28.3 +20.5 63 +35 +52 опасность
солнечного
удара
1016.1 1010.0
11 14.07 ЮВ 2 20 км 1/1 1000 м
[Cu hum]
+28.7 +21.6 65 +37 +54 опасность
солнечного
удара
1016.0 1010.0
12 14.07 Ю 2 20 км 1/1 1000 м
[Cu med, cong]
+29.2 +24.2 74 +41 +57 опасность
перегрева
1015.9 1009.9
13 14.07 ЮЗ 3 20 км 1/1 1000 м
[Cu med, cong]
+30.1 +20.0 55 +37 +48 очень
душно
1015.5 1009.5
18 14.07 З 2 20 км ясно +25.3 +21.9 81 +33 +33 очень
душно
1014.1 1008.0 +30.2
20 14.07 З 1 20 км ясно +24.6 +19.3 72 +30 +30 очень
душно
1014.1 1008.0
19 14.07 З 1 20 км ясно +24.7 +20.2 76 +30 +30 очень
душно
1014.1 1008.0
03 15.07 Ю 3 20 км ясно +27.3 1013.0 1006.9
04 15.07 В 3 20 км ясно +26.0 +13.0 45 +28 +28 жарко 1013.0 1006.9
05 15.07 СВ 1 20 км ясно +25.8 +13.5 47 +28 +30 жарко 1013.0 1006.9
06 15.07 В 1 20 км 3/0
[Ac trans]
+28.2 +11.4 35 +29 +33 жарко 1013.2 1007.1 +24.0
08 15.07 ЮВ 2 20 км ясно +29.9 +15.2 41 +32 +45 жарко 1013.1 1007.1
07 15.07 Ю 2 20 км ясно +29.8 +13.0 36 +31 +40 жарко 1013.1 1007.1
09 15.07 Ю 2 20 км ясно +29.0 +16.8 48 +33 +49 очень
душно
1013.2 1007.2
10 15.07 Ю 2 20 км ясно +29.9 1013.3 1007.3
11 15.07 ЮЗ 2 20 км 1/1 1000 м
[Cu med, cong]
+30.1 1013.5 1007.5
12 15.07 ЮЗ 2 20 км 1/1 1000 м
[Cu med, cong]
+30.4 +19.0 51 +36 +52 опасность
солнечного
удара
1013.1 1007.1
13 15.07 ЮЗ 2 20 км 1/1 1000 м
[Cu med, cong]
+30.6 +18.9 50 +36 +49 очень
душно
1012.7 1006.7
18 15.07 ЮЗ 2 20 км 3/3 1000 м
[Cu med, cong]
+26.0 +23.5 86 +35 +35 очень
душно
1011.5 1005.4 +30.7
19 15.07 З 2 20 км 1/1 1000 м
[Cu med, cong]
+25.7 +23.3 87 +35 +35 очень
душно
1011.7 1005.6
20 15.07 З 1 20 км 1/1 1000 м
[Cu hum]
+25.1 +23.1 89 +34 +34 очень
душно
1012.1 1006.0
03 16.07 В 2 20 км 1/1 1000 м
[Cu hum]
+22.9 +20.1 84 +30 +30 очень
душно
1012.1 1006.0
04 16.07 ЮВ 1 20 км 1/1 1000 м
[Cu hum]
+22.7 +18.8 79 +29 +29 очень
душно
1012.0 1005.8
05 16.07 ЮВ 1 20 км 3/3 1000 м
[Cu med, cong]
+23.3 +19.1 77 +30 +31 очень
душно
1011.7 1005.6
06 16.07 ЮВ 1 20 км 1/1 1000 м
[Cu med, cong]
+25.1 +20.3 75 +31 +36 очень
душно
1011.9 1005.8 +22.7
07 16.07 ЮВ 2 20 км 1/1 1000 м
[Cu hum]
+27.2 +18.1 58 +32 +39 очень
душно
1013.0 1006.9
08 16.07 ЮВ 4 20 км 1/1 1000 м
[Cu hum]
+28.0 +22.4 72 +37 +45 очень
душно
1012.9 1006.9
09 16.07 ЮВ 4 15 км 3/3 1000 м
[Cu med, cong]
+28.5 +23.5 74 +39 +46 очень
душно
1013.4 1007.4
10 16.07 ЮВ 3 15 км 3/3 600 м
[Cu med, cong]
+29.6 +25.2 77 +43 +54 опасность
перегрева
1013.8 1007.8
11 16.07 ЮВ 4 15 км 3/3 600 м
[Cu med, cong]
+29.5 +25.8 81 +44 +53 опасность
перегрева
1013.4 1007.4

 

Местоположение метеостанции Dubrovnik-Gorica (Хорватия): широта 42.65 долгота 18.08 высота над уровнем моря 53 м.

В архиве по умолчанию представлена погода в Dubrovnik-Gorica за последнюю неделю. Архивные данные за месяц целиком и за предыдущие месяцы, начиная с января 2011 года, Вы можете получить, выбрав интересующий диапазон дат из раскрывающегося списка и нажав кнопку "Ввод!".


*Определитесь, кто Вы:
робот инопланетянин человек

Внимание! Время в таблицах - всемирное. Для получения местного времени необходимо прибавить поправку, которая в Dubrovnik-Gorica равна 1 ч.

Смотрите также архив погоды в соседних городах и на ближайших метеорологических станциях:

Погода в Dubrovnik-Cilipi (Хорватия) (18 км)
Погода в Neum (Босния и Герцеговина) (49 км)
Погода в Tivat (Черногория) (60 км)
Погода в Ploce (Хорватия) (68 км)
Погода в Niksic (Черногория) (72 км)
Погода в Mostar (Босния и Герцеговина) (81 км)
Погода в Lastovo (Хорватия) (97 км)
Погода в Podgorica (Черногория) (101 км)
Погода в Podgorica-Grad (Черногория) (101 км)
Погода в Bar (Черногория) (104 км)

Пояснения к столбцам:

Ветер - указаны скорость ветра в м/с - средняя за 10 мин, порывы в срок и между сроками (в фигурных скобках) и направление, откуда дует ветер: С - северный, СВ - северо-восточный, В - восточный, ЮВ - юго-восточный, Ю - южный, ЮЗ - юго-западный, З - западный, СЗ - северо-западный.
Видимость - горизонтальная дальность видимости в метрах или километрах. При видимости от 1 до 10 км при отсутствии осадков обычно наблюдается дымка, при ухудшении видимости до 1 км и менее - туман. В сухую погоду видимость может ухудшаться дымом, пылью или мглою.
Явления - указаны атмосферные явления, наблюдавшиеся в срок или в последний час перед сроком; фигурными скобками обозначены явления, наблюдавшиеся между сроками (за 1-3 часа до срока); квадратными скобками обозначены град или гололедные отложения с указанием их диаметра в мм.
Облачность - указаны через наклонную черту общая и нижняя облачность в баллах и высота нижней границы облаков в метрах; квадратными скобками обозначены формы облаков: Ci - перистые, Cs - перисто-слоистые, Cc - перисто-кучевые, Ac - высококучевые, As - высокослоистые, Sc - слоисто-кучевые, Ns - слоисто-дождевые, Cu - кучевые, Cb - кучево-дождевые. Подробнее классификацию облаков см. в Атласе облаков (PDF).
T - Температура воздуха - температура, измеренная на высоте 2 м над землей.
Td - Температура точки росы - температура, при понижении до которой содержащийся в воздухе водяной пар достигнет насыщения.
f - Относительная влажность воздуха - влажноcть воздуха, измеренная на высоте 2 м над землей.
Te - Эффективная температура - температура, которую ощущает одетый по сезону человек в тени. Характеристика душности погоды. При расчете учитывается влияние влажности воздуха и скорости ветра на теплоощущения человека.
Tes - Эффективная температура на солнце - температура, которую ощущает человек, с поправкой на солнечный нагрев. Характеристика знойности погоды. Зависит от высоты солнца над горизонтом, облачности и скорости ветра. Ночью, в пасмурную погоду, а также при ветре 12 м/с и более поправка равна нулю.
P - Атмосферное давление - приведенное к уровню моря атмосферное давление.
Po - Атмосферное давление - измеренное на уровне метеостанции атмосферное давление.
Tmin - Минимальная температура - минимум температуры воздуха на высоте 2 м над землей.
Tmax - Максимальная температура - максимум температуры воздуха на высоте 2 м над землей.
R - Количество осадков - Количество выпавших осадков за период времени, мм. При наведении курсора мыши на число - период времени, за который выпало указанное количество осадков.
R24 - Количество осадков - Количество выпавших осадков за 24 часа, мм.
S - Снежный покров - Высота снежного покрова, см. При наведении курсора мыши на число - состояние снежного покрова и степень покрытия местности в баллах.